YV3136 SVMG-SVMT

Flight info

Callsign YV3136
Flight time 0h 37m
Altitude 2500
Route DCT
Aircraft PA31/L-SD/S

Departure

Time 2026-04-25 21:06
Airport Del Caribe Santiago Mariño International Airport (SVMG)

Arrival

Time 2026-04-25 21:44
Airport José Tadeo Monagas International Airport (SVMT)
Time Latitude Longitude Altitude Speed Heading
2026-04-25 21:00 10.91670 -63.96448 59 ft 0 kts 76°
2026-04-25 21:05 10.91668 -63.96438 59 ft 12 kts 134°
2026-04-25 21:05 10.91535 -63.96442 59 ft 23 kts 182°
2026-04-25 21:05 10.91413 -63.96479 59 ft 28 kts 173°
2026-04-25 21:05 10.91305 -63.96437 58 ft 0 kts 78°
2026-04-25 21:06 10.91320 -63.96358 58 ft 50 kts 77°
2026-04-25 21:06 10.91421 -63.95819 240 ft 91 kts 78°
2026-04-25 21:06 10.91552 -63.95183 563 ft 95 kts 78°
2026-04-25 21:06 10.91640 -63.94739 759 ft 98 kts 78°
2026-04-25 21:07 10.91505 -63.93835 1134 ft 110 kts 136°
2026-04-25 21:07 10.90769 -63.93589 1498 ft 114 kts 166°
2026-04-25 21:07 10.89921 -63.93460 1544 ft 142 kts 166°
2026-04-25 21:07 10.88919 -63.93267 1780 ft 141 kts 165°
2026-04-25 21:08 10.87951 -63.93101 2069 ft 140 kts 165°
2026-04-25 21:08 10.86972 -63.92936 2283 ft 145 kts 165°
2026-04-25 21:08 10.86011 -63.92643 2507 ft 144 kts 151°
2026-04-25 21:08 10.85315 -63.92293 2688 ft 145 kts 147°
2026-04-25 21:09 10.83597 -63.91231 3153 ft 146 kts 142°
2026-04-25 21:09 10.82749 -63.90651 3387 ft 146 kts 141°
2026-04-25 21:09 10.81895 -63.90063 3620 ft 147 kts 141°
2026-04-25 21:10 10.81057 -63.89477 3854 ft 148 kts 141°
2026-04-25 21:10 10.80196 -63.88875 4092 ft 148 kts 141°
2026-04-25 21:10 10.79341 -63.88276 4331 ft 149 kts 141°
2026-04-25 21:10 10.78489 -63.87677 4566 ft 149 kts 142°
2026-04-25 21:11 10.77639 -63.87083 4803 ft 150 kts 142°
2026-04-25 21:11 10.76774 -63.86477 5039 ft 150 kts 142°
2026-04-25 21:11 10.75913 -63.85872 5284 ft 150 kts 142°
2026-04-25 21:11 10.75052 -63.85268 5515 ft 151 kts 143°
2026-04-25 21:12 10.74176 -63.84655 5761 ft 151 kts 143°
2026-04-25 21:12 10.73306 -63.84048 6008 ft 152 kts 142°
2026-04-25 21:12 10.72446 -63.83446 6250 ft 151 kts 143°
2026-04-25 21:12 10.71867 -63.83040 6410 ft 151 kts 142°
2026-04-25 21:13 10.70699 -63.82223 6712 ft 152 kts 142°
2026-04-25 21:13 10.69830 -63.81612 6939 ft 153 kts 142°
2026-04-25 21:13 10.68945 -63.80996 7184 ft 153 kts 142°
2026-04-25 21:13 10.68071 -63.80382 7418 ft 153 kts 143°
2026-04-25 21:14 10.67196 -63.79767 7662 ft 153 kts 143°
2026-04-25 21:14 10.66287 -63.79125 7688 ft 167 kts 143°
2026-04-25 21:14 10.65287 -63.78418 7659 ft 178 kts 143°
2026-04-25 21:14 10.64273 -63.77709 7663 ft 177 kts 144°
2026-04-25 21:15 10.63251 -63.76999 7661 ft 176 kts 143°
2026-04-25 21:15 10.62243 -63.76297 7652 ft 175 kts 143°
2026-04-25 21:15 10.61243 -63.75597 7652 ft 174 kts 143°
2026-04-25 21:15 10.60246 -63.74900 7651 ft 173 kts 143°
2026-04-25 21:16 10.59250 -63.74204 7658 ft 172 kts 143°
2026-04-25 21:16 10.58268 -63.73517 7660 ft 172 kts 143°
2026-04-25 21:16 10.57278 -63.72822 7669 ft 173 kts 142°
2026-04-25 21:16 10.56278 -63.72122 7665 ft 173 kts 143°
2026-04-25 21:17 10.55285 -63.71425 7660 ft 174 kts 142°
2026-04-25 21:17 10.54294 -63.70726 7654 ft 174 kts 143°
2026-04-25 21:17 10.53287 -63.70023 7647 ft 174 kts 143°
2026-04-25 21:17 10.52286 -63.69323 7650 ft 173 kts 143°
2026-04-25 21:18 10.51284 -63.68624 7648 ft 173 kts 143°
2026-04-25 21:18 10.50295 -63.67932 7653 ft 173 kts 143°
2026-04-25 21:18 10.49297 -63.67236 7654 ft 173 kts 143°
2026-04-25 21:18 10.48300 -63.66540 7663 ft 172 kts 143°
2026-04-25 21:19 10.47309 -63.65847 7673 ft 172 kts 143°
2026-04-25 21:19 10.46335 -63.65163 7684 ft 172 kts 143°
2026-04-25 21:19 10.45336 -63.64463 7694 ft 172 kts 143°
2026-04-25 21:19 10.44355 -63.63777 7699 ft 172 kts 143°
2026-04-25 21:20 10.43355 -63.63077 7705 ft 173 kts 143°
2026-04-25 21:20 10.42689 -63.62611 7709 ft 173 kts 143°
2026-04-25 21:20 10.41378 -63.61690 7716 ft 173 kts 143°
2026-04-25 21:20 10.40384 -63.60997 7730 ft 173 kts 143°
2026-04-25 21:21 10.39380 -63.60296 7737 ft 173 kts 143°
2026-04-25 21:21 10.38392 -63.59602 7744 ft 173 kts 143°
2026-04-25 21:21 10.37400 -63.58911 7753 ft 173 kts 143°
2026-04-25 21:21 10.36407 -63.58217 7760 ft 172 kts 143°
2026-04-25 21:22 10.35416 -63.57525 7770 ft 172 kts 143°
2026-04-25 21:22 10.34418 -63.56828 7778 ft 172 kts 143°
2026-04-25 21:22 10.33429 -63.56136 7782 ft 172 kts 143°
2026-04-25 21:22 10.32435 -63.55443 7789 ft 172 kts 143°
2026-04-25 21:23 10.31450 -63.54756 7792 ft 172 kts 143°
2026-04-25 21:23 10.30454 -63.54060 7795 ft 172 kts 142°
2026-04-25 21:23 10.29472 -63.53373 7800 ft 172 kts 143°
2026-04-25 21:23 10.28476 -63.52678 7806 ft 172 kts 142°
2026-04-25 21:24 10.27476 -63.51980 7808 ft 172 kts 142°
2026-04-25 21:24 10.26496 -63.51293 7808 ft 172 kts 143°
2026-04-25 21:24 10.25497 -63.50593 7810 ft 173 kts 143°
2026-04-25 21:24 10.24503 -63.49900 7806 ft 172 kts 143°
2026-04-25 21:25 10.23520 -63.49215 7795 ft 172 kts 143°
2026-04-25 21:25 10.22537 -63.48528 7787 ft 171 kts 143°
2026-04-25 21:25 10.21553 -63.47844 7784 ft 171 kts 143°
2026-04-25 21:25 10.20571 -63.47160 7778 ft 171 kts 143°
2026-04-25 21:26 10.19589 -63.46474 7776 ft 171 kts 143°
2026-04-25 21:26 10.18597 -63.45782 7776 ft 171 kts 142°
2026-04-25 21:26 10.17617 -63.45097 7766 ft 171 kts 142°
2026-04-25 21:26 10.16635 -63.44410 7753 ft 171 kts 143°
2026-04-25 21:27 10.15657 -63.43727 7747 ft 171 kts 143°
2026-04-25 21:27 10.14681 -63.43057 7740 ft 162 kts 143°
2026-04-25 21:27 10.13781 -63.42427 7733 ft 153 kts 143°
2026-04-25 21:27 10.12927 -63.41830 7727 ft 146 kts 142°
2026-04-25 21:28 10.12098 -63.41256 7727 ft 140 kts 142°
2026-04-25 21:28 10.11304 -63.40700 7723 ft 136 kts 142°
2026-04-25 21:28 10.10526 -63.40155 7715 ft 133 kts 142°
2026-04-25 21:28 10.09763 -63.39624 7714 ft 131 kts 142°
2026-04-25 21:29 10.09001 -63.39092 7605 ft 137 kts 142°
2026-04-25 21:29 10.08192 -63.38523 7409 ft 146 kts 142°
2026-04-25 21:29 10.07338 -63.37925 7219 ft 151 kts 142°
2026-04-25 21:29 10.06453 -63.37307 7036 ft 155 kts 142°
2026-04-25 21:30 10.05557 -63.36682 6861 ft 157 kts 142°
2026-04-25 21:30 10.04648 -63.36046 6691 ft 158 kts 143°
2026-04-25 21:30 10.03744 -63.35417 6517 ft 158 kts 143°
2026-04-25 21:30 10.03132 -63.34992 6404 ft 159 kts 143°
2026-04-25 21:31 10.01915 -63.34144 6133 ft 160 kts 143°
2026-04-25 21:31 10.00991 -63.33507 5941 ft 159 kts 143°
2026-04-25 21:31 10.00083 -63.32876 5741 ft 155 kts 143°
2026-04-25 21:31 9.99199 -63.32263 5530 ft 151 kts 142°
2026-04-25 21:32 9.98412 -63.31591 5309 ft 144 kts 119°
2026-04-25 21:32 9.98246 -63.30637 5103 ft 140 kts 87°
2026-04-25 21:32 9.98286 -63.29657 4889 ft 137 kts 88°
2026-04-25 21:32 9.98317 -63.28701 4670 ft 133 kts 87°
2026-04-25 21:33 9.98338 -63.27779 4449 ft 128 kts 89°
2026-04-25 21:33 9.98170 -63.26936 4215 ft 119 kts 106°
2026-04-25 21:33 9.97882 -63.26102 4000 ft 132 kts 107°
2026-04-25 21:33 9.97651 -63.25172 3794 ft 138 kts 89°
2026-04-25 21:34 9.97665 -63.24188 3593 ft 144 kts 95°
2026-04-25 21:34 9.97372 -63.23199 3394 ft 147 kts 106°
2026-04-25 21:34 9.97043 -63.22213 3204 ft 149 kts 105°
2026-04-25 21:34 9.96707 -63.21213 3014 ft 149 kts 105°
2026-04-25 21:35 9.96573 -63.20197 2828 ft 146 kts 88°
2026-04-25 21:35 9.96165 -63.19256 2608 ft 154 kts 134°
2026-04-25 21:35 9.95130 -63.18908 2391 ft 165 kts 178°
2026-04-25 21:35 9.94070 -63.19374 2179 ft 171 kts 222°
2026-04-25 21:36 9.93214 -63.20188 1989 ft 168 kts 208°
2026-04-25 21:36 9.92194 -63.20815 1869 ft 172 kts 203°
2026-04-25 21:36 9.91042 -63.21117 1762 ft 171 kts 180°
2026-04-25 21:36 9.89848 -63.21188 1656 ft 173 kts 178°
2026-04-25 21:37 9.88621 -63.21251 1546 ft 173 kts 178°
2026-04-25 21:37 9.87825 -63.21291 1475 ft 171 kts 178°
2026-04-25 21:37 9.86252 -63.21371 1324 ft 168 kts 178°
2026-04-25 21:37 9.85091 -63.21423 1212 ft 166 kts 178°
2026-04-25 21:38 9.83943 -63.21468 1140 ft 159 kts 178°
2026-04-25 21:38 9.82886 -63.21511 1161 ft 142 kts 178°
2026-04-25 21:38 9.81942 -63.21558 1153 ft 130 kts 178°
2026-04-25 21:38 9.81056 -63.21608 1150 ft 124 kts 178°
2026-04-25 21:39 9.80176 -63.21658 1155 ft 131 kts 177°
2026-04-25 21:39 9.79232 -63.21699 1155 ft 137 kts 178°
2026-04-25 21:39 9.78266 -63.21749 1146 ft 140 kts 178°
2026-04-25 21:39 9.77285 -63.21804 1147 ft 140 kts 178°
2026-04-25 21:40 9.76310 -63.21853 1148 ft 140 kts 178°
2026-04-25 21:40 9.75338 -63.21903 1149 ft 139 kts 178°
2026-04-25 21:40 9.74357 -63.21948 1148 ft 138 kts 175°
2026-04-25 21:40 9.73498 -63.21744 1138 ft 114 kts 154°
2026-04-25 21:41 9.72843 -63.21437 1145 ft 97 kts 138°
2026-04-25 21:41 9.72305 -63.21002 1131 ft 100 kts 132°
2026-04-25 21:41 9.71956 -63.20433 1099 ft 95 kts 92°
2026-04-25 21:41 9.72055 -63.19790 1066 ft 92 kts 69°
2026-04-25 21:42 9.72059 -63.19778 1065 ft 92 kts 69°
2026-04-25 21:42 9.72243 -63.19321 1038 ft 93 kts 61°
2026-04-25 21:42 9.72558 -63.18738 925 ft 96 kts 60°
2026-04-25 21:42 9.72880 -63.18133 788 ft 98 kts 60°
2026-04-25 21:43 9.73201 -63.17526 649 ft 98 kts 60°
2026-04-25 21:43 9.73541 -63.16929 501 ft 97 kts 53°
2026-04-25 21:43 9.73972 -63.16402 365 ft 96 kts 48°
2026-04-25 21:43 9.74404 -63.15911 240 ft 90 kts 47°
2026-04-25 21:44 9.74749 -63.15522 225 ft 47 kts 47°
2026-04-25 21:44 9.74862 -63.15429 225 ft 10 kts 235°
2026-04-25 21:44 9.74842 -63.15599 225 ft 18 kts 241°
2026-04-25 21:45 9.74851 -63.15638 225 ft 0 kts 50°